ZPTAI SSER-SBJD

Flight info

Callsign ZPTAI
Flight time N/A
Altitude FL075
Route PUMLI/N0100F090 IFR EGBUG UTGED XONUG LOLAG PUGBU
Aircraft C172/L-SG/C

Departure

Time 2026-05-04 21:23
Airport Erechim Airport (SSER)

Arrival

Time N/A
Airport Comte. Rolim Adolfo Amaro–Jundiaí State Airport (SBJD)
Time Latitude Longitude Altitude Speed Heading
2026-05-04 21:17 -27.66270 -52.27153 2502 ft 0 kts 137°
2026-05-04 21:19 -27.66295 -52.27113 2502 ft 18 kts 129°
2026-05-04 21:19 -27.66389 -52.26955 2502 ft 28 kts 121°
2026-05-04 21:20 -27.66500 -52.26751 2502 ft 32 kts 124°
2026-05-04 21:20 -27.66598 -52.26592 2502 ft 13 kts 125°
2026-05-04 21:20 -27.66604 -52.26563 2502 ft 0 kts 305°
2026-05-04 21:21 -27.66506 -52.26741 2502 ft 47 kts 304°
2026-05-04 21:21 -27.66278 -52.27150 2502 ft 73 kts 303°
2026-05-04 21:21 -27.65998 -52.27644 2593 ft 72 kts 304°
2026-05-04 21:22 -27.65711 -52.28103 2692 ft 70 kts 305°
2026-05-04 21:22 -27.65318 -52.28353 2755 ft 72 kts 12°
2026-05-04 21:22 -27.64940 -52.28008 2861 ft 71 kts 31°
2026-05-04 21:22 -27.64779 -52.27875 2897 ft 74 kts 33°
2026-05-04 21:23 -27.64389 -52.27541 2994 ft 78 kts 33°
2026-05-04 21:23 -27.63940 -52.27163 3089 ft 83 kts 33°
2026-05-04 21:23 -27.63466 -52.26769 3176 ft 87 kts 33°
2026-05-04 21:23 -27.62972 -52.26359 3253 ft 90 kts 34°
2026-05-04 21:24 -27.62466 -52.25930 3322 ft 93 kts 34°
2026-05-04 21:24 -27.61947 -52.25491 3386 ft 94 kts 34°
2026-05-04 21:24 -27.61425 -52.25048 3473 ft 93 kts 34°
2026-05-04 21:24 -27.60916 -52.24621 3579 ft 90 kts 33°
2026-05-04 21:25 -27.60417 -52.24211 3687 ft 88 kts 33°
2026-05-04 21:25 -27.59930 -52.23812 3796 ft 86 kts 33°
2026-05-04 21:25 -27.59454 -52.23419 3906 ft 84 kts 34°
2026-05-04 21:25 -27.58992 -52.23030 4017 ft 82 kts 33°
2026-05-04 21:26 -27.58534 -52.22652 4127 ft 81 kts 33°
2026-05-04 21:26 -27.58088 -52.22277 4237 ft 79 kts 33°
2026-05-04 21:26 -27.57652 -52.21907 4348 ft 78 kts 32°
2026-05-04 21:26 -27.57224 -52.21550 4457 ft 76 kts 32°
2026-05-04 21:27 -27.56806 -52.21198 4565 ft 74 kts 32°
2026-05-04 21:27 -27.56402 -52.20852 4663 ft 73 kts 32°
2026-05-04 21:27 -27.55999 -52.20508 4757 ft 73 kts 31°
2026-05-04 21:27 -27.55592 -52.20168 4847 ft 73 kts 31°
2026-05-04 21:28 -27.55188 -52.19828 4937 ft 73 kts 31°
2026-05-04 21:28 -27.54788 -52.19489 5030 ft 72 kts 31°
2026-05-04 21:28 -27.54391 -52.19150 5120 ft 71 kts 31°
2026-05-04 21:28 -27.53995 -52.18815 5207 ft 71 kts 30°
2026-05-04 21:29 -27.53602 -52.18486 5294 ft 71 kts 30°
2026-05-04 21:29 -27.53212 -52.18157 5384 ft 70 kts 30°
2026-05-04 21:29 -27.52828 -52.17830 5470 ft 69 kts 30°
2026-05-04 21:29 -27.52447 -52.17504 5553 ft 69 kts 29°
2026-05-04 21:30 -27.52065 -52.17186 5638 ft 68 kts 29°
2026-05-04 21:30 -27.51689 -52.16869 5722 ft 67 kts 28°
2026-05-04 21:30 -27.51319 -52.16554 5804 ft 67 kts 28°
2026-05-04 21:30 -27.50951 -52.16238 5885 ft 66 kts 28°
2026-05-04 21:31 -27.50223 -52.15627 6044 ft 65 kts 27°
2026-05-04 21:31 -27.49952 -52.15397 6105 ft 64 kts 27°
2026-05-04 21:31 -27.49763 -52.15235 6145 ft 64 kts 27°
2026-05-04 21:32 -27.49407 -52.14930 6211 ft 65 kts 28°
2026-05-04 21:32 -27.49045 -52.14622 6275 ft 66 kts 28°
2026-05-04 21:32 -27.48679 -52.14311 6345 ft 66 kts 28°
2026-05-04 21:32 -27.48315 -52.14010 6422 ft 64 kts 27°
2026-05-04 21:33 -27.47959 -52.13714 6494 ft 64 kts 27°
2026-05-04 21:33 -27.47610 -52.13419 6568 ft 62 kts 27°
2026-05-04 21:33 -27.47266 -52.13126 6638 ft 62 kts 26°
2026-05-04 21:33 -27.46924 -52.12839 6708 ft 61 kts 25°
2026-05-04 21:34 -27.46587 -52.12557 6776 ft 60 kts 25°
2026-05-04 21:34 -27.46255 -52.12276 6845 ft 59 kts 25°
2026-05-04 21:34 -27.45928 -52.11997 6912 ft 59 kts 25°
2026-05-04 21:34 -27.45605 -52.11718 6975 ft 58 kts 25°
2026-05-04 21:35 -27.45284 -52.11445 7037 ft 58 kts 24°
2026-05-04 21:35 -27.44963 -52.11176 7100 ft 57 kts 24°
2026-05-04 21:35 -27.44643 -52.10905 7160 ft 57 kts 24°
2026-05-04 21:35 -27.44329 -52.10639 7217 ft 57 kts 24°
2026-05-04 21:36 -27.44012 -52.10369 7272 ft 57 kts 24°
2026-05-04 21:36 -27.43694 -52.10100 7326 ft 57 kts 25°
2026-05-04 21:36 -27.43374 -52.09829 7379 ft 58 kts 25°
2026-05-04 21:36 -27.43055 -52.09560 7436 ft 57 kts 24°
2026-05-04 21:37 -27.42742 -52.09292 7492 ft 57 kts 25°
2026-05-04 21:37 -27.42421 -52.09021 7525 ft 60 kts 25°
2026-05-04 21:37 -27.42073 -52.08740 7542 ft 64 kts 25°
2026-05-04 21:37 -27.41691 -52.08437 7547 ft 70 kts 26°
2026-05-04 21:38 -27.41267 -52.08108 7551 ft 78 kts 27°
2026-05-04 21:38 -27.40797 -52.07744 7545 ft 85 kts 27°
2026-05-04 21:38 -27.40292 -52.07359 7529 ft 91 kts 28°
2026-05-04 21:38 -27.40118 -52.07223 7524 ft 92 kts 28°